TimeEDT,TemperatureF,Dew PointF,Humidity,Sea Level PressureIn,VisibilityMPH,Wind Direction,Wind SpeedMPH,Gust SpeedMPH,PrecipitationIn,Events,Conditions,WindDirDegrees,DateUTC
12:52 AM,77.0,71.1,82,30.08,10.0,SSW,5.8,-,N/A,,Overcast,200,2013-07-09 04:52:00
1:52 AM,75.0,71.1,87,30.07,10.0,South,5.8,-,N/A,,Overcast,190,2013-07-09 05:52:00
2:52 AM,75.9,71.1,85,30.05,10.0,SSW,6.9,-,N/A,,Overcast,200,2013-07-09 06:52:00
3:52 AM,75.0,71.1,87,30.06,10.0,SSW,5.8,-,0.00,Rain,Light Rain,210,2013-07-09 07:52:00
4:52 AM,75.0,71.1,87,30.06,9.0,SSW,5.8,-,0.00,,Overcast,210,2013-07-09 08:52:00
5:52 AM,73.9,72.0,93,30.06,8.0,SSW,6.9,-,N/A,,Mostly Cloudy,210,2013-07-09 09:52:00
6:52 AM,75.0,72.0,90,30.07,8.0,SW,6.9,-,0.00,,Overcast,220,2013-07-09 10:52:00
7:52 AM,75.9,72.0,87,30.08,9.0,SW,8.1,-,N/A,,Mostly Cloudy,220,2013-07-09 11:52:00
8:52 AM,77.0,72.0,84,30.07,9.0,SW,5.8,-,N/A,,Mostly Cloudy,220,2013-07-09 12:52:00
9:52 AM,81.0,73.0,77,30.08,10.0,SW,6.9,-,N/A,,Scattered Clouds,230,2013-07-09 13:52:00
10:52 AM,82.9,73.9,74,30.06,10.0,West,9.2,-,N/A,,Scattered Clouds,260,2013-07-09 14:52:00
11:52 AM,84.9,73.9,69,30.06,10.0,West,13.8,-,N/A,,Partly Cloudy,260,2013-07-09 15:52:00
12:52 PM,87.1,73.0,63,30.05,10.0,West,12.7,20.7,N/A,,Scattered Clouds,260,2013-07-09 16:52:00
1:52 PM,89.1,73.9,61,30.05,10.0,West,9.2,-,N/A,,Mostly Cloudy,260,2013-07-09 17:52:00
2:33 PM,87.8,73.4,62,30.08,10.0,West,10.4,-,N/A,Thunderstorm,Thunderstorm,260,2013-07-09 18:33:00
2:44 PM,80.6,73.4,79,30.09,2.5,WNW,4.6,21.9,0.05,Rain-Thunderstorm,Heavy Thunderstorms and Rain,290,2013-07-09 18:44:00
2:50 PM,80.6,73.4,79,30.08,6.0,South,4.6,-,0.08,Rain-Thunderstorm,Thunderstorms and Rain,190,2013-07-09 18:50:00
2:52 PM,81.0,75.0,82,30.05,7.0,SSW,3.5,-,0.08,Rain-Thunderstorm,Thunderstorms and Rain,200,2013-07-09 18:52:00
3:26 PM,80.6,78.8,94,30.06,8.0,SSW,3.5,-,0.00,Rain,Light Rain,200,2013-07-09 19:26:00
3:52 PM,82.9,78.1,85,30.02,10.0,South,3.5,-,0.00,,Mostly Cloudy,170,2013-07-09 19:52:00
4:52 PM,86.0,75.9,72,30.00,10.0,SSW,4.6,-,N/A,,Mostly Cloudy,210,2013-07-09 20:52:00
5:52 PM,84.9,73.9,69,30.01,10.0,SSW,8.1,-,N/A,,Overcast,210,2013-07-09 21:52:00
6:52 PM,84.0,73.0,69,30.00,10.0,SW,6.9,-,N/A,,Mostly Cloudy,220,2013-07-09 22:52:00
7:52 PM,84.0,73.0,69,29.99,10.0,SW,5.8,-,N/A,,Mostly Cloudy,220,2013-07-09 23:52:00
8:52 PM,82.9,73.0,72,29.99,10.0,SW,5.8,-,N/A,,Mostly Cloudy,220,2013-07-10 00:52:00
9:52 PM,80.1,73.9,81,30.00,10.0,South,5.8,-,N/A,,Mostly Cloudy,180,2013-07-10 01:52:00
10:52 PM,80.1,73.0,79,30.00,10.0,South,6.9,-,N/A,,Mostly Cloudy,190,2013-07-10 02:52:00
11:52 PM,79.0,73.0,82,29.99,10.0,SSW,8.1,-,N/A,,Overcast,200,2013-07-10 03:52:00